Change the Weather History Date:

Tuesday, March 5, 2013

  Actual Average Record
Temperature  
Mean Temperature 4 °F -  
Max Temperature 10 °F 17 °F 39 °F (2005)
Min Temperature -2 °F 0 °F -25 °F (2003)
Degree Days  
Heating Degree Days 61    
Moisture  
Dew Point -1 °F    
Average Humidity 82    
Maximum Humidity 92    
Minimum Humidity 65    
Precipitation  
Precipitation 0.00 in - - ()
Sea Level Pressure  
Sea Level Pressure 30.53 in    
Wind  
Wind Speed 5 mph ()    
Max Wind Speed 9 mph    
Max Gust Speed -    
Visibility 13.1 miles    
Events Fog , Snow    
Averages and records for this station are not official NWS values.
T = Trace of Precipitation, MM = Missing Value Source: Averaged Metar Reports

Daily Weather History Graph

Daily Weather History Graph

Search for Another Location

Airport or City:

Trip Planner

Search our weather history database for the weather conditions in past years. The results will help you decide how hot, cold, wet, or windy it might be!

Date:

Astronomy

Mar. 05, 2013 Rise Set
Actual Time 7:33 AM CST 6:47 PM CST
Civil Twilight 7:00 AM CST 7:20 PM CST
Nautical Twilight 6:23 AM CST 7:58 PM CST
Astronomical Twilight 5:44 AM CST 8:36 PM CST
Moon 3:15 AM CST (3/5) 12:01 PM CST (3/5)
Length of Visible Light 12h 19m
Length of Day
11h 14m
Last Quarter, 40% of the Moon is Illuminated
Mar 5
Last Quarter
Mar 11
New
Mar 19
First Quarter
Mar 27
Full
Apr 2
Last Quarter

Hourly Weather History & Observations

Time (CST) Temp. Windchill Dew Point Humidity Pressure Visibility Wind Dir Wind Speed Gust Speed Precip Events Conditions
12:00 AM 5 °F - 3 °F 85% 30.49 in 3 mi NNW 9.2 mph - -   Overcast
12:00 AM 5.0 °F -9.1 °F 3.2 °F 92% 30.49 in 15.0 mi NNW 9.2 mph - N/A Snow Light Snow
1:00 AM 5.0 °F -9.1 °F 3.2 °F 92% 30.51 in 15.0 mi NNW 9.2 mph - N/A Snow Light Snow
2:00 AM 3.2 °F -9.1 °F -0.4 °F 85% 30.52 in 15.0 mi NW 6.9 mph - N/A Snow Light Snow
3:00 AM -2.2 °F -14.2 °F -4.0 °F 92% 30.53 in 15.0 mi NNW 5.8 mph - N/A   Partly Cloudy
4:00 AM -2.2 °F -15.6 °F -4.0 °F 92% 30.53 in 15.0 mi NW 6.9 mph - N/A   Mostly Cloudy
5:00 AM 1.4 °F -6.2 °F -2.2 °F 85% 30.52 in 15.0 mi NW 3.5 mph - N/A Snow Light Snow
6:00 AM 3 °F - 0 °F 82% 30.53 in 4 mi NW 4.6 mph - -   Overcast
6:00 AM 3.2 °F -6.2 °F -0.4 °F 85% 30.53 in 15.0 mi WNW 4.6 mph - N/A Snow Light Snow
7:00 AM 3.2 °F -6.2 °F -0.4 °F 85% 30.54 in 15.0 mi WNW 4.6 mph - N/A Snow Light Snow
8:00 AM -0.4 °F -8.3 °F -2.2 °F 92% 30.55 in 12.0 mi WNW 3.5 mph - N/A Snow Light Snow
9:00 AM -0.4 °F - -4.0 °F 85% 30.57 in 12.0 mi WSW 2.3 mph - N/A Snow Light Snow
10:00 AM 1.4 °F -8.3 °F -2.2 °F 85% 30.58 in 12.0 mi WSW 4.6 mph - N/A Snow Light Snow
11:00 AM 3.2 °F -4.2 °F -4.0 °F 72% 30.57 in 15.0 mi West 3.5 mph - N/A Snow Light Snow
12:00 PM 3 °F - -3 °F 65% 30.56 in 5 mi West 4.6 mph - -   Overcast
12:00 PM 3.2 °F -4.2 °F -2.2 °F 78% 30.56 in 15.0 mi West 3.5 mph - N/A Snow Light Snow
12:47 PM 6.8 °F - - N/A% - 15.0 mi West 2.3 mph - N/A   Mostly Cloudy
1:00 PM 6.8 °F - 1.4 °F 79% 30.56 in 15.0 mi Calm Calm - N/A   Mostly Cloudy
2:00 PM 8.6 °F - 3.2 °F 79% 30.54 in 15.0 mi West 2.3 mph - N/A   Partly Cloudy
3:00 PM 10.4 °F 2.2 °F 5.0 °F 79% 30.53 in 15.0 mi SSW 4.6 mph - N/A   Partly Cloudy
4:00 PM 8.6 °F 2.0 °F 5.0 °F 85% 30.52 in 15.0 mi South 3.5 mph - N/A   Partly Cloudy
5:00 PM 8.6 °F -1.3 °F 3.2 °F 79% 30.52 in 15.0 mi SSW 5.8 mph - N/A   Mostly Cloudy
6:00 PM 6 °F - 0 °F 68% 30.50 in 5 mi SSW 4.6 mph - -   Overcast
7:00 PM 5.0 °F -4.1 °F -0.4 °F 78% 30.49 in 15.0 mi SE 4.6 mph - N/A   Partly Cloudy
8:00 PM 1.4 °F -11.3 °F -4.0 °F 78% 30.49 in 15.0 mi SE 6.9 mph - N/A   Clear
9:00 PM 1.4 °F -12.5 °F -4.0 °F 78% 30.49 in 15.0 mi SE 8.1 mph - N/A   Clear
10:00 PM -0.4 °F -13.4 °F -5.8 °F 78% 30.49 in 15.0 mi SE 6.9 mph - N/A   Partly Cloudy
11:00 PM -2.2 °F -16.8 °F -7.6 °F 78% 30.49 in 15.0 mi SE 8.1 mph - N/A Fog Partly Cloudy